Total_Precipitation_Accumulation
0.32 0.30 0.28 0.26 0.22 0.18 0.15 0.14 0.12 0.11 0.10 0.09 0.09 0.09 0.09 0.08 0.08 0.09 0.10 0.10 0.09 0.08 0.08 0.09 0.08 0.09 0.10 0.10 0.10 0.12 0.14 0.21 0.25 0.13 0.06 0.07 0.13 0.21 0.29 0.31 0.32 0.31 0.27
0.22 0.20 0.17 0.15 0.13 0.11 0.10 0.09 0.08 0.08 0.08 0.08 0.09 0.08 0.07 0.07 0.07 0.09 0.09 0.08 0.08 0.08 0.07 0.08 0.08 0.08 0.09 0.09 0.10 0.11 0.14 0.20 0.29 0.24 0.13 0.09 0.12 0.19 0.26 0.28 0.24 0.23 0.26
0.15 0.12 0.10 0.09 0.08 0.08 0.08 0.08 0.07 0.07 0.08 0.08 0.07 0.07 0.06 0.07 0.08 0.07 0.07 0.06 0.06 0.06 0.07 0.08 0.09 0.10 0.09 0.11 0.14 0.15 0.18 0.22 0.30 0.33 0.21 0.16 0.17 0.24 0.35 0.35 0.30 0.37 0.31
0.10 0.08 0.08 0.08 0.08 0.08 0.09 0.09 0.09 0.09 0.09 0.08 0.08 0.07 0.07 0.07 0.06 0.04 0.03 0.04 0.04 0.05 0.06 0.09 0.10 0.11 0.13 0.18 0.19 0.22 0.27 0.31 0.32 0.35 0.28 0.21 0.23 0.29 0.41 0.48 0.44 0.42 0.38
0.10 0.09 0.09 0.09 0.10 0.11 0.12 0.12 0.12 0.11 0.10 0.09 0.08 0.07 0.06 0.04 0.02 0.01 0.01 0.01 0.03 0.04 0.06 0.09 0.11 0.11 0.16 0.19 0.19 0.24 0.32 0.38 0.40 0.42 0.36 0.30 0.28 0.37 0.47 0.51 0.48 0.45 0.38
0.14 0.15 0.15 0.15 0.15 0.16 0.16 0.15 0.15 0.13 0.11 0.08 0.05 0.04 0.03 0.02 0.01 0.01 0.01 0.01 0.02 0.05 0.09 0.10 0.08 0.07 0.08 0.09 0.14 0.21 0.30 0.39 0.46 0.51 0.48 0.44 0.37 0.44 0.55 0.58 0.58 0.57 0.45
0.24 0.22 0.20 0.19 0.19 0.19 0.16 0.14 0.13 0.10 0.08 0.07 0.05 0.04 0.05 0.03 0.00 0.00 0.00 0.01 0.04 0.09 0.12 0.12 0.09 0.08 0.12 0.17 0.17 0.17 0.25 0.33 0.46 0.59 0.61 0.52 0.49 0.54 0.67 0.71 0.66 0.65 0.59
0.27 0.25 0.23 0.20 0.19 0.16 0.12 0.11 0.09 0.07 0.07 0.06 0.05 0.05 0.07 0.04 0.00 0.00 0.00 0.01 0.06 0.09 0.10 0.12 0.15 0.18 0.16 0.13 0.14 0.22 0.32 0.42 0.48 0.54 0.61 0.55 0.53 0.55 0.63 0.67 0.64 0.62 0.51
0.26 0.21 0.16 0.12 0.10 0.08 0.07 0.06 0.06 0.06 0.06 0.05 0.04 0.05 0.08 0.07 0.01 0.00 0.00 0.02 0.05 0.07 0.09 0.11 0.12 0.17 0.13 0.12 0.19 0.31 0.39 0.52 0.60 0.73 0.73 0.67 0.66 0.65 0.56 0.53 0.63 0.71 0.62
0.16 0.11 0.07 0.05 0.05 0.05 0.05 0.06 0.06 0.07 0.06 0.05 0.05 0.06 0.08 0.09 0.02 0.00 0.01 0.03 0.05 0.06 0.10 0.14 0.13 0.11 0.11 0.15 0.22 0.38 0.54 0.62 0.79 0.99 0.94 0.87 0.82 0.78 0.66 0.59 0.71 0.82 0.78
0.08 0.05 0.03 0.02 0.03 0.03 0.05 0.07 0.08 0.08 0.09 0.07 0.08 0.09 0.08 0.05 0.03 0.00 0.01 0.03 0.05 0.07 0.12 0.18 0.22 0.16 0.16 0.18 0.29 0.47 0.65 0.68 0.87 1.12 1.01 0.82 0.74 0.66 0.65 0.66 0.71 0.74 0.71
0.06 0.05 0.03 0.02 0.02 0.02 0.07 0.10 0.10 0.11 0.11 0.10 0.10 0.09 0.07 0.07 0.05 0.01 0.00 0.01 0.04 0.10 0.22 0.25 0.27 0.25 0.22 0.27 0.40 0.59 0.73 0.86 1.00 1.09 0.91 0.71 0.60 0.57 0.56 0.54 0.52 0.52 0.54
0.08 0.07 0.05 0.04 0.04 0.03 0.07 0.10 0.11 0.11 0.08 0.07 0.07 0.07 0.07 0.09 0.08 0.02 0.01 0.02 0.05 0.12 0.26 0.33 0.33 0.30 0.37 0.55 0.67 0.78 0.90 1.04 1.07 0.94 0.78 0.67 0.55 0.49 0.46 0.45 0.43 0.45 0.48
0.08 0.06 0.06 0.07 0.08 0.08 0.09 0.07 0.08 0.08 0.06 0.06 0.08 0.08 0.10 0.12 0.09 0.05 0.05 0.07 0.10 0.15 0.23 0.38 0.46 0.49 0.63 0.83 0.96 1.04 1.11 1.12 0.97 0.85 0.73 0.62 0.50 0.45 0.43 0.39 0.39 0.41 0.43
0.07 0.06 0.06 0.06 0.08 0.13 0.13 0.06 0.04 0.05 0.02 0.03 0.06 0.08 0.12 0.13 0.08 0.06 0.09 0.11 0.14 0.19 0.23 0.37 0.52 0.59 0.74 0.90 1.01 1.05 1.07 1.06 0.97 0.84 0.72 0.61 0.52 0.47 0.44 0.39 0.38 0.39 0.42
0.08 0.06 0.04 0.04 0.05 0.08 0.13 0.14 0.05 0.01 0.00 0.01 0.03 0.05 0.07 0.09 0.07 0.06 0.08 0.12 0.17 0.23 0.29 0.46 0.59 0.63 0.72 0.82 0.91 0.99 0.97 0.92 0.84 0.79 0.73 0.66 0.58 0.50 0.47 0.42 0.38 0.39 0.42
0.05 0.05 0.03 0.02 0.04 0.05 0.09 0.15 0.17 0.10 0.03 0.02 0.02 0.03 0.05 0.06 0.07 0.06 0.07 0.11 0.16 0.24 0.35 0.54 0.66 0.72 0.77 0.81 0.82 0.85 0.90 0.88 0.80 0.74 0.68 0.62 0.54 0.48 0.45 0.42 0.37 0.36 0.36
0.02 0.02 0.02 0.03 0.02 0.03 0.05 0.07 0.12 0.16 0.16 0.13 0.07 0.04 0.04 0.07 0.09 0.09 0.10 0.12 0.17 0.25 0.39 0.55 0.66 0.72 0.77 0.79 0.77 0.73 0.76 0.78 0.71 0.63 0.58 0.53 0.49 0.45 0.41 0.38 0.34 0.27 0.27
0.02 0.03 0.02 0.02 0.02 0.02 0.03 0.04 0.07 0.10 0.13 0.14 0.13 0.08 0.07 0.10 0.13 0.14 0.15 0.17 0.22 0.28 0.37 0.50 0.60 0.65 0.66 0.66 0.67 0.65 0.65 0.67 0.63 0.57 0.53 0.49 0.45 0.40 0.37 0.30 0.25 0.18 0.21
0.01 0.00 0.01 0.01 0.01 0.01 0.01 0.03 0.06 0.10 0.11 0.11 0.11 0.09 0.11 0.20 0.27 0.25 0.21 0.20 0.22 0.26 0.34 0.45 0.54 0.56 0.55 0.51 0.49 0.49 0.50 0.50 0.50 0.48 0.47 0.45 0.41 0.36 0.29 0.24 0.21 0.21 0.22
0.01 0.01 0.00 0.00 0.00 0.00 0.01 0.01 0.03 0.06 0.08 0.10 0.09 0.08 0.15 0.22 0.31 0.31 0.29 0.29 0.29 0.30 0.32 0.36 0.42 0.45 0.44 0.40 0.36 0.34 0.34 0.37 0.38 0.38 0.39 0.38 0.33 0.29 0.23 0.18 0.16 0.13 0.13
0.01 0.01 0.00 0.00 0.00 0.00 0.00 0.01 0.01 0.03 0.05 0.08 0.09 0.09 0.16 0.21 0.27 0.32 0.34 0.35 0.37 0.36 0.33 0.33 0.34 0.36 0.35 0.33 0.30 0.27 0.26 0.27 0.28 0.31 0.33 0.32 0.28 0.23 0.17 0.12 0.09 0.08 0.07
0.00 0.01 0.01 0.00 0.00 0.00 0.01 0.01 0.01 0.02 0.03 0.05 0.07 0.10 0.14 0.21 0.27 0.34 0.39 0.38 0.37 0.37 0.33 0.29 0.32 0.35 0.32 0.28 0.25 0.22 0.21 0.21 0.21 0.24 0.31 0.32 0.26 0.19 0.13 0.09 0.06 0.05 0.04
0.00 0.00 0.00 0.00 0.00 0.00 0.01 0.01 0.01 0.01 0.01 0.03 0.05 0.07 0.11 0.17 0.22 0.27 0.33 0.36 0.37 0.37 0.37 0.37 0.37 0.36 0.31 0.25 0.21 0.19 0.18 0.19 0.19 0.23 0.27 0.29 0.24 0.16 0.10 0.07 0.05 0.04 0.04
0.00 0.00 0.00 0.00 0.00 0.00 0.00 0.00 0.00 0.01 0.01 0.02 0.03 0.05 0.08 0.11 0.13 0.16 0.21 0.26 0.29 0.32 0.34 0.36 0.35 0.32 0.27 0.21 0.17 0.14 0.16 0.16 0.14 0.18 0.25 0.28 0.21 0.14 0.09 0.06 0.05 0.04 0.04
0.00 0.00 0.00 0.00 0.00 0.00 0.00 0.00 0.01 0.01 0.01 0.01 0.02 0.03 0.05 0.07 0.09 0.12 0.14 0.17 0.19 0.23 0.27 0.32 0.32 0.23 0.15 0.11 0.11 0.10 0.08 0.06 0.05 0.08 0.18 0.23 0.17 0.12 0.12 0.09 0.05 0.04 0.05